Wind_Speed
113 113 112 112 112 111 110 109 107 103 99 94 90 87 81 74 68 64 63 60 58 56 52 48 46 44 43 42 40 40 40 41 42 42 42 40 39 40 41 42 44 45 47 51 55 60 64 67 70 74 79 83 88 93 98 103 108 112 116 119 123 127 131 135 139 145 151 157 161 164 165 165 165 164 164 164 164 164 165 166 168 169 170 172 173
114 114 113 113 113 112 110 108 106 101 96 92 88 85 80 73 67 64 62 60 58 56 52 48 45 44 42 41 40 40 40 41 42 42 42 40 39 39 40 41 43 44 46 48 53 56 60 64 67 71 75 79 83 88 93 99 104 108 112 116 120 124 128 131 135 139 145 152 157 161 164 165 166 166 166 166 166 165 165 166 167 169 170 170 171
116 115 115 114 113 111 109 106 103 98 94 90 86 83 79 72 67 64 62 60 58 56 53 49 45 43 42 41 40 40 40 40 41 42 42 41 39 38 40 40 41 43 45 46 50 54 57 60 64 68 72 75 79 83 88 94 99 104 109 113 117 121 125 128 132 136 140 145 151 156 160 163 166 167 167 167 167 167 166 166 167 168 169 170 170
116 116 116 114 113 110 106 104 100 95 90 87 84 81 76 70 66 63 61 59 58 56 53 49 45 43 42 41 40 39 40 40 41 41 42 42 40 38 39 39 40 41 44 45 47 50 54 57 61 65 69 71 75 79 83 88 93 99 104 109 113 117 121 125 129 133 137 141 145 150 154 159 162 165 167 168 168 168 168 167 167 168 169 170 170
117 117 116 114 111 107 103 100 96 91 86 83 81 78 74 68 64 62 61 59 57 55 52 49 46 43 42 41 40 39 39 40 40 41 42 42 40 39 38 38 39 40 42 45 46 48 50 54 57 61 65 68 71 75 79 83 88 93 98 103 108 113 117 121 125 129 133 137 140 144 148 152 156 161 165 168 169 170 170 170 169 169 169 170 170
118 116 114 111 107 103 99 96 91 87 82 79 78 75 72 66 62 60 60 58 57 54 52 49 46 43 42 41 40 39 39 40 40 41 42 41 41 40 39 37 37 38 41 43 45 46 47 50 54 58 62 65 68 71 75 79 83 88 93 98 102 107 112 116 120 124 128 133 137 140 143 146 149 154 160 165 169 171 171 171 171 171 171 171 171
116 114 111 107 102 98 95 91 87 83 79 76 74 73 70 65 61 59 59 57 56 54 51 48 46 44 42 40 40 39 39 39 40 41 41 41 41 41 40 38 36 37 39 42 43 44 45 48 51 54 58 62 65 67 71 75 79 83 87 92 97 101 106 111 115 119 124 128 133 137 140 143 145 148 153 158 164 168 171 172 173 173 173 173 172
113 110 105 101 97 93 90 87 83 80 77 73 71 70 67 63 60 58 58 56 55 53 50 48 46 44 42 40 39 39 39 39 40 41 40 40 40 41 40 38 36 37 38 40 42 42 43 45 48 51 54 58 62 65 67 71 75 79 83 87 91 96 101 105 109 113 118 123 128 133 137 141 143 145 148 152 157 162 167 170 173 175 175 175 174
108 103 98 94 91 88 86 84 80 77 74 71 69 67 65 62 59 58 57 55 53 51 49 47 46 44 41 40 39 38 38 38 40 41 40 39 40 41 40 38 36 36 37 39 40 41 42 44 46 48 51 54 58 62 65 67 70 74 78 82 86 91 95 99 103 108 113 118 122 128 133 137 141 143 145 148 151 155 160 165 169 173 175 176 175
101 96 92 88 86 85 83 81 79 76 72 69 67 65 63 60 58 57 56 54 52 50 48 46 45 43 41 40 39 38 37 38 39 40 39 39 40 41 40 38 37 36 37 38 39 39 40 42 44 46 48 51 54 58 62 65 67 70 74 78 82 86 90 94 98 103 107 112 117 122 127 132 137 139 141 144 146 149 153 157 162 167 171 174 175
95 91 87 85 83 82 81 79 77 74 71 68 66 63 61 59 57 56 55 53 51 49 47 46 45 43 41 39 38 37 37 37 39 39 39 38 39 40 40 38 37 36 36 37 38 38 38 41 43 44 46 48 51 54 58 61 64 67 70 74 78 81 85 89 93 98 102 107 112 116 121 127 132 135 138 140 142 145 148 151 155 160 165 169 172
91 87 85 83 82 81 79 77 76 73 70 67 64 62 60 58 57 56 54 52 50 48 46 46 44 42 41 39 37 36 36 37 38 38 38 38 39 40 40 38 37 36 36 36 36 36 37 39 42 43 44 46 48 52 55 58 61 63 66 69 73 77 80 84 88 92 97 102 107 111 116 121 126 130 133 136 139 141 144 147 150 154 159 163 167
88 86 84 82 81 79 77 76 74 71 69 66 63 61 59 57 56 55 53 51 49 47 46 45 44 42 41 39 37 35 35 36 37 37 37 37 39 40 39 38 37 36 36 36 36 35 35 37 40 42 42 44 46 50 52 55 57 60 63 66 69 72 76 80 83 87 92 97 102 106 111 116 120 124 128 131 134 137 140 142 146 149 153 157 161
88 86 84 82 80 78 76 74 72 70 67 65 62 59 58 57 55 54 52 50 48 46 45 44 43 42 40 38 36 35 35 36 37 36 36 36 38 39 39 37 36 36 36 36 36 35 34 35 37 40 41 42 45 47 50 52 54 56 59 62 65 68 72 75 79 83 87 91 97 102 106 110 115 118 121 125 128 131 134 137 141 144 147 151 155
88 85 82 80 78 76 75 73 70 68 66 63 60 58 57 55 54 53 51 48 46 45 44 43 42 41 40 38 36 34 34 36 36 35 35 36 37 38 38 37 36 36 36 36 35 35 35 34 35 37 39 41 43 45 47 49 51 53 56 59 61 65 68 71 74 79 83 87 91 96 101 105 109 113 115 118 121 125 129 132 135 138 141 144 148
85 82 79 77 75 74 72 70 68 66 64 61 58 56 55 54 52 51 49 47 45 44 43 42 41 41 40 38 35 33 33 35 36 35 35 36 37 37 37 36 36 35 35 36 35 35 35 34 34 35 37 39 41 43 45 47 49 51 53 56 58 60 64 68 71 74 79 83 87 91 95 99 104 108 110 113 116 119 122 126 129 132 135 138 142
80 77 75 74 72 71 69 68 66 64 62 59 56 55 54 53 51 50 48 45 44 43 42 41 41 40 39 38 35 33 33 35 35 35 35 36 36 37 36 36 35 35 35 35 35 34 34 34 33 34 36 38 39 41 43 44 47 49 51 53 55 57 60 64 68 71 75 79 83 87 91 94 98 102 105 108 111 114 117 120 123 127 130 133 137
75 73 71 70 69 68 67 65 63 62 60 57 54 53 53 51 50 48 46 44 43 42 41 40 40 40 39 38 35 33 32 34 35 35 35 36 36 36 35 35 35 35 34 35 35 34 34 34 33 33 34 37 38 39 40 42 44 47 50 51 52 54 57 60 64 68 71 75 79 83 87 90 93 97 100 103 106 109 112 115 119 122 125 129 133
71 70 68 67 66 65 64 62 61 60 58 55 53 52 51 49 48 46 45 43 42 41 40 39 39 39 38 37 35 32 32 33 34 34 35 36 36 36 34 34 35 35 34 34 35 34 33 34 33 32 33 35 37 38 38 40 42 45 47 49 50 52 55 58 61 65 68 72 75 79 83 86 89 92 95 98 101 104 107 110 114 116 120 124 128
68 67 65 64 63 62 61 59 58 57 55 53 50 50 49 48 46 45 43 42 41 40 40 39 38 39 38 36 35 32 31 32 33 34 34 35 36 35 33 33 34 35 34 34 35 34 33 33 33 32 31 33 36 37 37 38 40 42 45 46 48 51 54 56 58 61 65 68 71 75 79 82 85 88 91 93 96 99 102 105 108 111 114 118 122
65 64 62 61 60 59 58 57 56 55 52 50 48 47 47 46 45 43 42 41 40 39 39 38 38 39 38 36 34 32 30 31 33 33 33 34 35 34 33 32 33 34 33 33 34 34 33 33 33 32 31 32 34 35 36 37 38 40 42 44 47 50 52 53 55 58 61 64 68 71 74 78 81 84 87 89 91 94 96 100 103 105 108 112 115
62 61 59 58 57 56 55 54 53 52 50 47 46 45 45 44 43 41 40 40 39 39 38 38 38 38 38 36 34 32 30 30 32 32 32 33 34 34 33 31 32 32 32 32 33 34 33 32 32 32 31 31 32 34 35 36 37 38 40 43 46 49 50 51 52 55 58 61 64 67 70 73 76 79 82 85 87 89 91 94 97 100 104 107 110
60 59 57 56 54 53 52 52 51 49 47 45 44 43 43 43 41 40 39 39 38 38 38 37 37 38 38 36 35 33 31 30 31 31 31 32 33 34 33 31 31 31 31 31 32 33 33 33 32 32 32 31 31 33 34 35 36 36 38 40 44 47 48 49 50 52 55 59 62 64 67 69 72 75 78 80 82 84 86 89 92 96 100 103 106
58 57 55 53 52 50 50 49 48 46 44 43 42 42 42 41 40 39 38 38 38 38 37 37 37 38 38 37 35 33 31 31 30 30 31 32 33 33 33 31 31 31 30 30 31 32 32 32 32 32 31 31 31 32 33 34 35 35 36 38 41 44 46 47 47 50 52 55 58 61 63 66 68 71 73 75 77 80 83 86 89 92 95 99 102
57 55 53 51 50 48 47 46 45 43 42 41 41 40 40 40 39 38 37 37 37 37 37 37 37 38 38 37 36 34 32 31 30 30 30 32 33 33 33 32 31 30 30 30 30 30 31 31 31 31 31 31 31 32 32 33 34 34 35 36 38 41 43 45 45 47 49 52 55 58 60 63 65 67 69 72 75 77 80 83 86 89 92 94 97
55 53 51 49 47 46 45 44 42 41 40 40 39 39 39 38 37 37 36 36 37 37 37 37 37 37 37 37 36 35 33 31 30 30 30 31 32 33 33 32 31 30 30 29 29 29 30 30 30 31 31 31 31 32 32 33 33 33 34 35 36 38 41 42 44 45 46 48 52 55 58 60 62 64 67 69 72 74 76 79 82 85 87 90 92
53 51 49 47 45 44 43 41 40 39 39 39 38 38 37 37 36 36 35 36 36 37 37 37 37 37 37 37 37 35 34 32 30 30 30 31 32 32 32 32 31 30 30 29 28 28 29 29 29 30 30 30 31 32 32 33 33 33 33 34 35 36 38 40 42 43 44 45 48 51 54 57 60 62 64 66 68 70 72 75 78 81 83 85 88
51 49 47 45 44 42 41 40 39 38 38 37 37 37 36 36 36 35 35 35 36 36 37 37 37 36 36 37 36 36 35 33 31 30 30 30 31 32 32 32 31 30 30 29 29 28 28 28 28 29 29 29 30 31 32 33 33 33 33 33 34 35 36 38 40 41 42 43 45 47 51 54 57 59 61 63 64 66 68 71 74 77 79 81 84
50 48 46 44 42 41 39 39 38 37 37 36 36 36 35 35 35 35 34 35 35 36 36 37 37 36 36 36 36 35 35 34 32 31 31 30 30 31 31 31 31 30 29 29 29 28 28 28 28 28 28 29 29 31 32 33 33 32 32 32 33 34 35 36 38 39 40 41 42 44 47 51 54 56 58 60 61 63 65 68 70 73 75 77 80
50 48 46 44 42 40 39 38 37 36 35 35 35 34 34 34 34 34 34 34 35 36 36 37 37 36 36 36 36 35 35 34 33 32 31 31 30 30 31 31 31 30 29 29 29 28 28 27 27 28 28 28 29 30 31 32 33 32 32 32 32 33 34 35 36 38 39 40 41 42 44 47 50 52 55 56 58 60 62 64 67 69 71 74 76
50 48 45 43 41 40 39 38 37 36 35 34 34 33 33 33 34 34 34 35 35 35 36 36 36 36 36 36 35 35 35 34 33 33 32 31 30 30 30 30 30 29 29 29 29 28 28 27 27 27 27 28 28 29 30 31 32 32 32 32 32 33 33 34 35 36 38 39 40 41 42 44 46 49 51 53 55 57 59 61 63 66 68 71 73
50 47 45 43 41 40 39 38 37 36 35 34 33 32 32 32 33 34 34 35 35 35 36 36 36 36 36 36 35 35 35 34 34 33 33 32 31 31 30 30 29 29 29 29 29 29 28 28 27 27 27 27 28 28 29 30 31 32 32 32 32 32 33 34 34 35 36 38 39 40 41 41 43 45 48 50 52 54 56 58 60 62 64 67 69
50 48 45 43 41 40 39 38 37 36 35 34 33 32 32 32 33 33 34 35 35 35 36 36 36 36 36 35 35 35 35 34 34 34 33 33 32 31 31 30 29 29 29 29 29 29 29 28 28 27 27 27 27 28 28 29 30 31 32 32 32 32 33 33 34 34 35 36 37 39 40 41 41 42 44 47 49 51 53 55 57 59 61 63 66
50 48 46 44 42 41 40 39 38 37 35 34 33 32 32 32 32 33 34 35 35 36 36 36 36 36 36 35 35 34 34 34 34 33 34 33 32 31 31 30 30 29 29 29 29 29 29 29 28 28 27 27 27 27 27 28 28 29 30 32 32 33 33 33 33 33 34 34 35 37 39 40 40 41 42 44 46 48 51 53 55 56 58 60 62
52 49 47 45 43 42 41 40 38 37 36 35 34 33 32 32 33 33 34 35 36 36 36 36 36 36 36 35 34 34 34 34 33 33 33 33 33 32 31 30 30 30 29 30 30 29 29 29 28 28 28 27 27 27 27 27 28 28 29 30 32 33 33 33 33 33 33 34 34 35 37 38 40 40 41 42 44 45 48 50 52 54 56 57 59
53 51 48 46 44 43 42 40 39 38 37 36 35 34 33 33 33 34 35 35 36 36 36 37 37 36 36 35 34 33 33 33 33 33 33 33 33 32 32 31 30 30 30 30 30 30 30 29 29 29 28 28 28 27 27 27 27 28 29 29 31 32 33 33 33 33 33 33 33 34 35 37 38 39 41 41 42 44 45 48 50 52 54 55 57
54 52 49 47 45 44 43 41 40 39 38 37 35 35 34 34 34 35 35 36 37 37 37 37 37 37 36 36 35 34 33 33 33 33 33 33 33 32 32 32 31 31 31 30 30 30 30 30 30 30 29 29 28 28 28 28 28 28 28 29 30 31 32 33 33 33 33 32 33 33 34 35 37 38 40 41 42 43 44 45 47 50 52 53 55
54 53 50 48 47 45 44 42 41 40 38 37 36 36 35 35 35 36 36 37 37 38 38 37 37 37 37 36 36 34 34 33 33 33 33 33 33 33 32 32 32 32 32 31 31 31 31 31 31 31 30 30 29 29 28 28 28 29 29 29 29 30 31 32 33 33 33 33 33 33 34 34 35 37 38 40 42 43 43 44 46 47 49 51 53
53 52 51 49 48 47 45 43 42 40 39 38 38 37 37 36 36 37 37 38 38 38 38 38 38 37 37 36 36 35 35 34 33 33 33 33 33 33 33 33 33 33 32 32 32 31 32 32 32 32 32 31 31 30 29 29 29 29 29 29 29 30 31 32 33 33 33 33 33 33 33 34 34 35 37 38 41 43 44 44 45 46 47 49 51
52 52 51 50 49 48 47 45 43 42 41 40 39 39 38 38 37 38 38 38 38 38 38 38 38 38 37 37 37 36 36 35 34 34 34 34 34 34 34 34 34 34 33 33 33 32 33 33 33 33 33 33 32 32 31 31 30 30 30 30 30 30 31 32 32 33 34 34 34 34 34 34 34 35 36 37 39 41 43 45 46 46 47 48 49
51 51 51 51 50 49 48 46 45 43 42 42 41 40 39 39 39 39 39 39 39 39 39 38 38 38 37 37 37 37 36 36 35 35 35 34 35 35 35 35 35 35 34 34 34 34 34 34 34 34 34 34 33 33 33 32 32 31 31 31 31 31 31 32 32 33 34 34 34 34 34 34 35 35 35 36 37 39 41 43 45 47 47 48 48
50 49 49 50 50 49 48 47 46 44 44 43 42 41 41 40 40 40 39 39 40 40 39 39 38 38 37 37 37 37 37 37 37 36 36 36 36 36 36 36 36 36 36 36 36 35 35 35 36 36 36 35 35 34 34 34 33 33 32 32 32 32 32 32 33 33 34 34 35 35 35 35 35 35 36 36 37 38 39 41 43 45 47 48 48
49 48 48 48 49 49 49 48 47 46 45 44 43 43 42 42 41 41 41 40 40 40 40 40 39 38 38 37 37 37 38 38 38 37 37 37 37 37 37 37 37 37 37 37 37 37 37 37 37 37 37 37 36 36 35 35 34 34 34 33 33 33 33 33 33 34 34 35 35 35 35 35 36 36 36 36 37 38 39 40 41 43 45 47 48
47 47 47 47 47 47 48 48 47 46 45 45 44 44 44 43 43 42 42 41 41 41 41 40 40 39 39 38 38 38 38 38 38 38 38 38 38 38 38 38 38 38 39 39 39 39 39 39 39 39 39 39 38 37 37 36 36 36 35 35 35 35 35 34 34 35 35 35 35 36 36 36 36 36 36 37 37 38 39 40 41 42 43 45 47
48 47 46 46 46 46 46 46 46 46 46 45 45 45 45 45 44 44 43 43 42 42 42 42 41 41 41 40 40 39 39 39 39 40 40 40 40 40 40 40 40 40 40 40 40 40 40 41 41 41 41 41 40 40 39 38 37 37 37 36 36 36 36 36 36 36 36 36 36 36 37 37 37 37 37 37 37 38 39 39 40 41 43 44 45
50 48 47 46 46 46 45 45 45 45 45 45 45 45 45 45 45 45 45 44 44 44 43 43 43 43 42 42 42 41 40 40 40 41 41 41 41 42 42 42 42 42 42 42 42 42 42 42 42 42 42 42 42 41 41 40 39 39 38 38 38 38 37 37 37 38 38 37 37 37 37 38 38 38 38 38 38 38 39 40 40 41 42 44 45
52 50 48 47 46 46 46 45 45 44 44 44 45 45 45 46 46 45 45 45 45 45 44 44 44 44 44 44 43 43 42 42 42 42 42 42 43 43 43 44 44 44 44 44 44 44 44 43 44 44 44 43 43 43 42 42 41 41 40 40 40 39 39 39 39 39 39 39 39 39 39 39 39 39 39 39 39 39 39 40 41 41 42 43 44
52 51 49 48 46 46 45 45 45 44 44 43 44 44 45 45 45 46 46 46 46 46 46 45 45 45 45 45 44 44 44 44 44 44 43 44 44 44 45 45 45 46 46 46 46 46 46 45 45 45 45 45 45 44 44 43 43 42 42 41 41 41 41 41 40 40 40 40 40 40 40 40 40 40 40 40 40 40 41 41 41 42 42 43 44
51 51 50 49 48 47 46 45 45 44 44 43 43 43 43 44 44 45 46 46 46 46 47 47 46 46 46 46 46 46 46 46 46 46 45 45 45 45 46 46 46 47 47 48 48 48 48 47 47 46 46 46 46 46 45 45 44 44 43 43 42 42 42 42 42 42 42 42 42 42 42 42 42 42 42 42 42 42 42 42 42 42 43 44 44
52 51 50 50 49 48 47 46 46 45 44 43 43 42 42 42 43 43 44 45 46 46 47 47 47 47 47 47 47 47 47 47 47 47 47 47 47 47 47 47 47 48 48 48 49 49 49 49 48 48 48 47 47 47 46 46 45 45 44 44 43 43 43 43 43 43 43 43 43 43 43 43 44 44 44 44 43 43 43 43 43 44 44 44 45
53 52 51 51 50 50 49 48 47 46 45 44 43 43 42 42 42 42 43 43 44 45 45 46 46 47 47 47 48 48 48 48 48 48 48 48 48 48 48 48 48 48 49 49 49 49 49 49 49 49 49 48 48 47 47 46 46 46 45 45 44 44 44 44 44 44 44 44 44 44 44 45 45 45 46 46 46 45 45 45 45 45 45 45 45
Wind_Direction
320 320 321 321 321 322 322 322 322 322 321 321 319 317 317 317 315 314 313 312 310 307 305 304 303 301 299 296 292 288 284 282 281 279 276 273 270 267 265 262 259 254 248 245 243 240 238 238 236 235 234 233 233 232 232 232 231 231 231 230 230 230 229 229 229 228 229 229 229 229 229 229 229 229 229 230 230 230 230 231 231 231 231 231 231
319 319 320 320 320 321 321 320 320 320 320 319 317 316 315 315 314 313 312 311 309 306 304 303 302 300 298 295 292 288 284 282 281 279 277 274 271 268 266 264 261 257 252 247 245 242 239 238 237 236 235 234 233 233 232 232 232 232 231 231 231 230 230 230 230 230 230 230 230 229 229 230 230 229 229 229 230 230 230 230 231 232 232 232 231
318 318 319 319 319 319 319 319 319 319 319 318 316 314 314 314 313 312 312 311 308 306 304 303 301 299 297 295 291 288 285 283 281 280 278 275 272 269 266 264 262 259 255 250 246 245 242 239 238 237 237 235 234 234 233 232 232 232 232 231 231 231 231 230 230 230 231 231 230 230 230 229 230 230 230 230 230 230 230 230 231 232 232 232 232
317 318 318 318 318 318 318 318 317 317 317 316 314 312 312 312 312 311 311 310 308 305 303 302 301 299 296 294 291 288 285 283 282 280 278 276 274 270 267 265 263 261 258 254 248 245 244 241 239 238 237 237 235 234 234 233 232 232 232 232 231 231 231 231 231 230 231 231 232 231 231 230 230 231 231 231 231 231 231 230 230 231 232 232 233
317 317 317 317 317 317 317 316 316 315 315 314 312 311 311 311 311 310 310 309 307 304 303 301 300 298 296 294 291 288 285 284 282 281 279 277 276 273 269 266 264 262 260 257 252 247 244 243 241 240 238 237 236 236 235 234 233 233 232 232 232 232 231 231 231 231 231 231 232 232 232 231 230 230 231 232 232 231 231 231 231 231 231 232 232
316 316 316 316 316 316 315 315 314 314 314 313 311 310 310 310 310 310 309 308 306 304 302 301 299 298 295 293 291 288 286 284 283 281 279 278 276 274 271 268 266 264 261 259 256 251 247 244 242 241 240 238 237 236 236 235 234 233 233 233 232 232 232 232 231 231 231 231 232 233 233 232 231 231 231 232 232 233 232 232 232 232 231 231 232
315 315 315 315 315 315 314 313 313 313 313 312 311 310 309 309 309 309 308 307 305 303 301 300 299 297 295 292 290 288 286 284 283 281 279 278 277 275 273 270 268 266 263 261 258 255 250 246 244 242 241 240 238 237 236 236 235 234 233 233 233 232 232 232 232 231 231 231 231 232 233 233 232 232 231 231 232 233 233 233 233 233 232 232 232
314 314 314 314 314 314 313 312 312 312 312 311 310 309 308 308 308 308 308 306 305 302 301 300 298 297 295 292 290 288 286 284 283 281 280 278 277 276 274 272 270 268 266 263 260 258 253 249 246 244 242 240 240 239 237 236 236 235 234 234 233 233 232 233 232 232 231 231 231 231 232 233 233 232 231 231 231 232 233 233 233 233 233 233 232
313 313 314 314 313 313 312 311 311 311 311 311 310 308 308 308 308 308 307 305 304 301 300 299 298 296 294 292 289 287 286 284 283 281 280 278 277 276 275 274 272 270 268 265 263 260 257 253 249 246 244 241 240 240 239 237 236 235 235 234 234 233 232 232 232 232 232 231 231 231 231 232 233 232 232 231 231 232 232 233 234 234 234 234 233
313 313 313 313 313 312 311 310 310 310 310 311 309 308 307 307 307 307 306 305 303 300 299 298 297 296 294 292 289 287 286 284 282 281 280 278 277 276 276 275 273 271 269 267 265 262 259 256 252 249 247 244 242 240 239 239 238 236 235 235 234 234 233 232 232 232 232 232 231 231 231 232 233 233 233 232 232 231 232 232 233 234 235 235 235
313 313 313 313 312 311 310 310 309 310 310 310 309 308 307 307 307 306 305 304 302 299 298 297 296 295 293 291 289 287 285 284 282 280 279 278 277 276 276 275 274 273 271 269 267 264 261 259 255 251 249 248 245 242 240 239 239 238 237 236 235 235 234 233 231 231 232 232 232 231 231 232 232 233 233 233 232 232 232 232 233 234 234 235 235
313 313 313 312 311 310 310 309 308 309 309 309 308 307 307 306 306 306 305 303 301 299 297 296 295 294 292 290 288 286 285 283 281 280 279 278 277 276 276 276 275 274 272 271 268 266 263 261 258 254 251 249 248 245 242 240 239 239 238 237 236 235 234 234 232 231 231 232 232 232 232 232 232 233 233 233 233 232 232 232 232 233 234 235 235
313 313 312 311 310 309 309 308 307 308 308 308 307 307 306 306 305 305 304 302 300 298 296 295 295 293 292 290 288 286 285 282 281 279 279 277 277 276 276 276 276 275 274 273 271 268 264 262 260 257 253 251 250 248 245 242 240 239 239 239 237 236 234 234 234 232 231 231 232 232 232 232 233 233 233 233 233 233 232 232 232 232 233 233 234
313 313 312 311 310 309 307 306 306 306 306 306 306 306 305 304 304 304 302 301 299 297 296 295 294 293 291 290 288 287 285 282 281 280 279 278 277 277 277 277 277 277 276 275 273 271 267 263 261 259 256 253 252 250 247 245 242 241 240 239 239 237 235 234 234 233 232 231 231 232 233 233 233 233 233 233 234 233 233 233 232 232 232 233 234
312 312 311 309 308 307 305 305 305 305 305 305 305 305 304 303 303 303 301 300 298 296 295 294 293 292 290 290 289 287 285 282 281 280 279 278 277 277 277 277 277 277 277 277 276 274 271 266 262 260 257 255 253 252 249 247 244 242 241 240 239 238 237 235 234 233 233 232 231 231 232 233 234 234 234 234 234 234 234 234 233 233 233 233 233
311 310 309 308 306 305 304 303 303 303 303 304 304 303 302 302 302 301 300 299 297 295 294 294 292 291 290 289 288 287 285 283 281 281 280 278 278 277 277 278 278 278 278 278 277 277 275 271 266 262 258 256 254 253 251 249 247 245 243 242 241 239 238 236 235 234 233 233 232 232 231 232 233 234 234 234 234 234 234 234 234 234 234 233 233
310 309 307 306 304 303 302 302 302 302 303 303 304 302 302 302 301 300 299 298 296 294 294 293 292 291 290 289 288 287 285 283 282 282 280 279 279 278 278 278 278 278 278 278 278 277 277 275 271 266 261 258 255 253 251 249 248 246 245 243 242 241 240 238 236 235 234 233 233 233 232 232 232 233 234 234 234 234 234 234 234 234 234 233 233
310 308 306 304 303 302 302 302 302 302 303 303 303 302 301 301 300 299 298 296 294 293 292 292 292 290 289 289 289 287 285 283 282 282 281 280 279 279 279 279 279 279 279 279 279 278 277 276 274 270 266 261 258 255 252 250 249 248 246 245 244 243 241 239 237 236 235 234 234 234 234 233 232 233 233 234 234 234 234 234 234 233 233 233 233
310 308 306 304 303 303 302 302 302 302 302 303 302 301 300 299 298 298 297 295 293 292 291 291 291 290 289 289 289 287 285 283 282 281 281 280 280 279 279 279 279 279 279 279 279 279 278 277 275 272 268 265 261 257 254 251 250 249 247 246 245 244 243 241 239 237 236 235 234 234 234 234 234 234 233 233 234 235 235 235 234 234 233 233 233
310 308 307 305 304 303 303 303 302 301 302 302 301 300 299 298 297 297 295 293 292 290 290 290 290 289 289 289 288 287 285 283 282 281 281 280 280 280 279 279 279 279 280 280 280 279 279 279 277 274 270 267 263 260 257 253 251 249 248 247 246 245 244 243 241 239 237 236 235 235 235 235 235 235 235 234 234 234 235 236 236 235 235 234 234
311 309 307 306 304 303 304 303 302 301 302 301 300 299 298 297 296 295 294 292 291 289 289 290 290 289 289 289 288 287 285 283 282 282 281 281 280 280 279 279 278 279 280 280 280 280 280 279 278 277 273 269 266 262 259 255 252 250 249 248 246 246 245 244 243 241 239 238 237 236 236 235 236 236 236 236 235 234 235 236 236 237 236 236 235
312 310 308 306 305 305 304 303 302 302 302 301 300 298 296 295 295 294 293 291 290 288 288 289 289 289 289 289 288 287 286 284 283 283 282 282 281 280 280 279 278 279 279 280 281 281 281 280 279 278 275 271 268 265 261 258 254 251 249 248 247 246 246 245 244 243 241 240 238 237 237 237 236 237 237 237 237 236 236 235 236 237 237 237 237
314 311 309 308 307 306 304 302 302 303 302 301 299 297 295 295 294 293 292 290 289 288 288 289 289 289 289 289 288 287 286 284 284 284 284 283 282 281 281 280 279 279 279 280 280 281 281 281 280 279 277 274 270 267 264 260 257 254 251 249 248 247 246 245 244 244 242 241 240 239 238 238 237 237 237 238 238 238 237 237 236 236 236 237 237
315 313 311 310 308 306 304 303 303 303 302 300 298 296 295 294 294 292 291 290 288 287 287 288 289 289 289 288 287 286 286 285 285 286 285 284 283 282 282 281 280 280 280 280 280 281 281 281 281 280 279 277 274 270 267 263 259 256 253 251 249 248 247 245 244 244 243 243 242 241 240 239 239 238 238 238 238 238 238 237 237 237 236 236 237
316 314 313 311 309 307 305 304 304 303 301 299 297 296 295 294 293 292 291 290 288 287 287 288 288 289 289 288 287 286 286 286 286 286 286 285 284 283 283 282 281 281 280 280 279 280 280 280 280 280 279 278 276 273 270 266 263 259 256 254 251 249 247 246 245 244 244 243 243 242 241 241 240 239 238 238 237 237 237 237 238 238 237 237 236
317 316 314 312 310 308 306 306 305 303 300 299 297 296 295 293 292 291 291 289 288 287 287 287 288 288 288 288 287 287 286 286 287 287 286 285 284 284 283 283 282 281 280 279 279 279 279 279 279 279 279 279 278 276 273 270 266 262 259 257 254 251 248 247 246 245 244 244 243 242 242 241 241 240 239 239 238 238 238 238 238 239 239 238 237
318 317 315 313 311 310 308 306 304 302 300 299 298 296 294 293 292 291 290 289 287 287 287 287 287 288 288 287 287 287 287 287 287 287 285 284 283 283 283 283 282 282 281 280 279 279 278 278 278 278 279 278 278 277 275 273 269 266 262 260 257 254 251 248 246 245 245 244 243 242 242 241 241 241 240 240 240 239 239 239 239 239 239 239 239
319 318 316 315 313 312 310 307 305 302 301 300 298 296 294 293 292 291 290 288 287 286 286 286 287 287 287 287 287 287 288 288 288 287 286 284 283 282 282 282 282 281 281 280 280 279 278 278 278 278 278 278 278 278 277 275 272 269 265 263 260 258 255 251 248 246 245 245 244 243 242 241 241 241 241 241 240 240 240 240 241 241 241 240 240
321 319 318 316 315 313 311 308 305 304 302 301 298 296 295 294 292 291 290 288 287 286 286 286 287 287 287 286 286 287 288 288 289 288 286 284 283 283 282 282 281 281 280 280 280 279 278 277 277 278 278 277 277 278 277 276 274 271 268 265 263 261 259 256 252 248 246 245 245 245 244 242 241 240 240 240 240 240 241 241 241 242 242 242 242
322 321 319 318 316 314 311 309 307 305 303 301 298 297 296 295 294 292 290 288 287 286 285 286 286 287 286 286 286 286 287 287 288 287 286 285 283 282 282 281 281 281 280 280 280 279 278 277 277 277 278 277 277 277 278 277 276 273 271 268 265 263 261 259 256 252 249 246 245 245 245 244 243 241 240 239 239 240 240 241 241 242 242 243 243
322 321 320 318 316 314 312 310 308 306 304 301 300 298 297 296 295 293 291 288 287 285 285 285 286 286 285 285 285 285 286 286 286 286 285 284 283 282 281 280 280 280 280 281 281 280 279 278 277 277 277 277 277 277 278 278 277 275 273 270 268 265 263 261 258 256 253 250 248 246 246 246 245 243 242 240 239 239 239 240 240 241 242 243 244
322 321 320 319 317 314 312 310 308 307 305 303 302 300 299 297 295 293 291 289 287 285 284 284 285 285 284 284 284 284 285 286 286 286 285 284 283 281 281 280 280 279 279 280 280 280 279 278 277 277 277 277 277 277 277 277 277 276 275 273 270 267 265 263 260 258 255 253 251 249 248 247 247 245 244 242 241 240 240 240 240 240 241 242 243
322 321 320 319 317 314 312 311 309 308 306 305 304 302 300 298 296 293 291 289 287 285 284 284 284 284 283 283 283 283 284 285 286 286 285 284 283 282 281 281 280 280 279 279 279 279 279 279 278 277 277 276 277 276 276 276 277 277 276 274 272 270 267 265 263 260 258 255 253 251 250 249 248 248 246 245 243 242 241 241 241 241 241 241 242
322 321 320 319 317 314 312 311 310 309 308 306 305 303 301 298 296 293 290 288 286 285 284 283 283 282 281 281 281 282 282 283 284 284 283 283 282 282 281 281 280 280 280 279 279 279 278 278 278 278 278 277 276 276 276 276 277 277 277 276 274 272 270 267 265 263 261 258 256 253 251 250 249 249 248 247 245 244 243 243 242 242 242 242 242
322 321 320 318 316 314 313 312 311 309 308 307 305 303 301 299 296 293 290 288 286 285 284 283 282 281 280 280 280 281 281 282 282 282 281 281 281 280 280 279 279 279 279 279 279 278 278 278 278 278 278 278 277 276 276 276 277 277 277 276 274 273 271 269 267 265 263 261 259 257 254 252 250 249 249 248 247 246 245 245 244 244 243 243 243
320 320 319 318 316 314 313 311 310 309 308 307 305 304 301 299 296 293 290 288 286 285 284 283 282 281 280 279 279 279 279 280 280 280 279 279 279 279 278 278 278 278 278 278 278 278 278 277 277 278 278 277 277 276 276 277 277 277 276 275 274 273 272 271 269 267 265 263 262 260 258 256 254 251 250 249 248 248 246 246 245 245 245 245 244
318 318 317 316 315 313 312 310 309 308 307 306 305 303 301 298 296 293 291 289 287 285 284 283 282 281 280 279 278 278 277 277 278 278 277 277 277 277 277 277 277 277 277 277 277 277 278 278 278 277 277 277 276 276 277 277 277 277 277 276 274 273 272 271 270 268 267 265 263 262 260 258 257 255 253 251 250 249 248 247 246 246 246 246 245
316 316 316 315 313 312 310 309 308 306 305 304 302 301 299 297 295 293 291 289 287 286 284 283 282 280 280 279 278 277 276 276 276 276 276 276 276 276 276 276 276 276 276 276 276 277 277 278 278 278 278 277 277 277 277 277 278 277 277 276 275 274 272 271 270 269 268 267 266 264 262 260 258 257 255 254 252 251 250 249 248 247 247 246 246
315 314 314 313 311 310 309 308 306 305 303 302 300 298 297 296 294 292 290 288 287 285 284 283 281 280 279 277 276 275 274 274 274 274 274 274 274 274 274 275 275 275 275 276 276 276 276 277 278 278 279 279 279 278 278 278 278 277 277 277 276 275 274 272 271 270 270 269 268 266 265 262 260 258 256 254 253 252 251 251 250 248 248 247 247
315 313 312 311 310 308 307 306 305 303 301 299 297 296 295 294 292 291 289 288 286 285 283 282 280 279 278 277 275 274 273 273 272 272 272 272 272 272 273 273 274 274 275 275 275 275 276 276 277 277 278 278 278 278 278 278 277 277 277 277 276 276 275 274 272 271 271 271 270 269 268 266 264 261 259 256 254 252 252 251 251 250 249 248 247
315 313 311 309 308 306 305 304 303 301 299 297 295 294 293 292 290 289 288 287 286 284 282 281 279 278 277 276 275 274 273 272 271 271 271 271 271 271 271 272 273 273 274 274 275 275 275 276 276 277 277 277 277 277 277 277 277 277 277 277 276 276 275 274 273 272 271 271 271 271 271 270 268 265 263 260 257 254 252 251 250 250 250 249 248
316 314 311 308 306 305 303 302 301 299 297 295 294 292 291 289 288 287 286 285 285 284 283 281 279 278 277 276 275 274 273 272 272 271 271 270 270 270 270 271 271 272 273 274 274 274 275 275 275 276 276 276 276 277 277 277 277 277 276 276 276 276 275 274 273 273 272 272 271 272 272 272 272 270 268 265 262 259 256 253 250 249 249 249 249
316 315 313 309 307 304 303 301 299 297 295 294 292 291 289 288 286 285 284 283 283 283 282 281 280 279 277 276 274 273 273 272 272 271 271 270 270 270 270 270 270 271 272 272 273 274 274 275 275 275 275 275 275 276 276 276 276 276 276 276 275 275 274 274 273 273 272 272 272 272 272 272 273 272 271 269 267 264 261 258 255 252 249 248 249
317 315 314 311 308 305 302 300 298 297 294 292 290 289 288 286 285 284 283 283 282 281 281 280 280 279 277 276 274 273 272 272 271 271 270 270 270 270 270 270 270 270 270 271 272 272 273 274 274 275 275 276 276 276 276 276 276 276 276 276 275 275 274 274 273 273 272 272 272 272 272 272 273 273 272 271 270 267 265 262 259 257 254 251 249
317 316 315 313 311 308 304 301 299 296 294 292 290 288 286 285 284 283 282 282 281 280 280 280 279 278 277 276 275 274 273 272 272 271 271 271 270 270 270 270 270 270 270 270 271 271 272 272 273 273 274 275 276 276 276 276 276 276 276 276 275 275 275 274 274 273 272 272 272 271 272 272 272 273 272 272 271 270 268 265 262 260 257 255 252
317 317 315 314 312 310 307 304 301 298 295 293 290 288 287 285 284 283 282 281 280 280 279 279 278 278 277 277 276 275 274 273 272 272 271 271 271 271 271 271 271 271 271 271 271 271 271 271 272 272 273 274 274 275 276 276 276 276 276 276 275 275 275 274 274 273 273 272 272 271 272 272 272 273 273 273 272 271 269 267 265 262 260 258 256
316 316 315 314 312 310 308 306 303 301 297 294 292 290 288 286 284 283 281 280 279 279 278 278 277 277 277 277 276 276 275 274 273 272 271 270 270 270 270 270 271 271 271 271 271 271 271 271 271 272 272 273 273 274 275 275 275 275 275 275 275 275 275 275 274 274 273 273 273 272 272 272 272 273 273 273 273 272 271 269 267 265 263 260 258
314 314 314 313 312 310 308 306 304 302 300 297 294 291 289 287 285 283 282 280 279 278 277 277 276 276 275 275 275 275 274 274 273 271 271 270 269 269 269 269 269 269 270 270 270 270 270 270 270 271 271 272 272 273 273 274 274 274 274 274 274 274 274 274 274 273 273 273 273 273 272 272 273 273 273 274 274 273 272 271 269 267 265 263 260
314 313 312 312 311 309 307 305 303 302 300 298 296 294 291 289 286 284 283 281 280 278 277 276 276 275 274 274 273 273 272 272 272 271 271 270 269 269 268 268 268 268 268 268 269 269 269 269 269 269 269 270 270 271 271 272 272 272 272 273 273 273 273 273 273 273 273 272 272 272 272 272 273 273 273 274 274 274 273 272 271 269 267 265 263
313 312 312 311 310 309 307 305 303 301 300 298 297 295 293 291 288 286 284 282 280 279 278 277 276 275 274 273 273 272 272 271 271 271 270 270 270 269 269 268 268 268 268 268 268 268 269 269 269 269 269 269 269 269 269 270 270 271 271 271 271 271 272 272 272 272 271 271 271 271 272 272 273 273 273 273 273 273 273 272 271 269 268 266 264
313 312 311 310 309 307 306 304 303 301 299 298 296 295 293 291 289 287 285 283 281 279 278 277 276 275 274 273 273 272 272 271 271 270 270 270 270 270 269 269 269 268 268 268 269 269 269 269 269 270 269 269 269 269 269 269 269 269 269 270 270 270 270 270 270 270 270 270 270 270 270 271 272 272 273 273 273 273 273 272 271 270 268 266 264
Height
10210 10203 10196 10187 10180 10172 10165 10157 10149 10142 10135 10127 10120 10113 10107 10102 10097 10092 10087 10083 10079 10075 10072 10068 10065 10061 10059 10056 10054 10053 10051 10049 10048 10046 10045 10044 10043 10042 10040 10040 10041 10042 10043 10043 10044 10046 10048 10051 10054 10057 10059 10062 10067 10072 10077 10082 10087 10092 10098 10105 10112 10119 10126 10134 10144 10152 10156 10163 10172 10182 10193 10203 10213 10224 10232 10241 10251 10261 10271 10279 10287 10295 10304 10312 10321
10199 10191 10183 10176 10168 10161 10153 10146 10138 10131 10124 10117 10110 10103 10097 10092 10087 10082 10077 10073 10069 10065 10062 10059 10056 10053 10050 10048 10046 10044 10043 10041 10040 10038 10037 10036 10035 10033 10032 10031 10032 10032 10033 10034 10034 10036 10038 10041 10043 10045 10047 10051 10056 10060 10065 10069 10074 10079 10084 10091 10097 10104 10110 10118 10127 10135 10140 10147 10154 10163 10175 10185 10194 10204 10215 10224 10233 10242 10252 10261 10269 10276 10284 10293 10302
10187 10179 10171 10163 10156 10149 10142 10134 10127 10120 10113 10106 10099 10093 10087 10081 10077 10072 10067 10063 10059 10055 10052 10049 10047 10044 10042 10040 10038 10036 10034 10032 10031 10030 10028 10027 10027 10025 10024 10023 10023 10023 10023 10024 10025 10026 10028 10030 10032 10034 10036 10040 10045 10049 10053 10057 10061 10066 10071 10077 10084 10089 10095 10103 10111 10118 10124 10130 10137 10146 10158 10169 10178 10187 10196 10207 10216 10224 10233 10242 10251 10258 10266 10274 10282
10174 10165 10158 10151 10144 10137 10130 10122 10115 10109 10103 10095 10088 10083 10077 10072 10066 10061 10057 10053 10049 10045 10042 10040 10037 10035 10033 10031 10029 10027 10025 10024 10022 10021 10019 10018 10018 10017 10016 10014 10014 10014 10014 10015 10016 10016 10018 10020 10022 10023 10026 10029 10033 10037 10040 10045 10049 10054 10058 10063 10070 10075 10080 10088 10096 10102 10108 10114 10121 10129 10140 10153 10164 10172 10180 10189 10198 10206 10213 10222 10232 10240 10248 10255 10264
10160 10152 10145 10138 10131 10124 10117 10110 10103 10098 10092 10085 10078 10072 10067 10062 10057 10052 10047 10043 10039 10036 10033 10030 10028 10026 10023 10022 10020 10018 10017 10015 10014 10012 10011 10010 10009 10008 10007 10006 10006 10005 10005 10005 10005 10007 10008 10010 10011 10013 10015 10018 10022 10025 10028 10032 10037 10041 10045 10050 10056 10061 10066 10073 10081 10088 10093 10099 10105 10112 10122 10135 10148 10158 10164 10171 10177 10185 10193 10202 10211 10220 10228 10236 10245
10147 10139 10132 10125 10118 10111 10104 10097 10090 10085 10080 10074 10067 10060 10055 10051 10047 10042 10037 10033 10030 10027 10023 10020 10018 10016 10014 10013 10011 10009 10008 10006 10005 10004 10002 10001 10000 9999 9998 9998 9997 9997 9996 9995 9996 9997 9999 10000 10001 10002 10004 10007 10011 10014 10017 10020 10024 10028 10032 10037 10043 10048 10053 10059 10067 10074 10080 10086 10091 10097 10105 10115 10128 10139 10146 10151 10157 10163 10172 10181 10191 10200 10208 10216 10225
10133 10125 10118 10111 10104 10097 10090 10083 10077 10073 10068 10063 10057 10050 10044 10040 10037 10033 10028 10024 10020 10017 10014 10011 10009 10007 10005 10004 10002 10001 9999 9998 9996 9995 9994 9993 9992 9990 9989 9989 9988 9988 9987 9986 9986 9987 9989 9990 9991 9992 9994 9996 9999 10002 10005 10008 10012 10016 10020 10025 10030 10035 10039 10045 10053 10060 10067 10072 10078 10083 10089 10096 10106 10117 10126 10133 10139 10145 10153 10162 10171 10179 10187 10195 10204
10119 10112 10104 10097 10089 10083 10076 10070 10065 10060 10056 10051 10046 10040 10034 10030 10026 10023 10019 10015 10011 10007 10004 10002 9999 9998 9996 9995 9993 9992 9991 9989 9987 9986 9985 9985 9983 9981 9980 9980 9980 9979 9978 9977 9977 9977 9979 9980 9981 9982 9984 9986 9988 9991 9994 9997 10000 10004 10008 10012 10016 10021 10026 10031 10039 10046 10051 10057 10063 10069 10073 10077 10084 10095 10105 10113 10121 10128 10135 10141 10148 10156 10165 10174 10184
10105 10098 10091 10083 10076 10069 10062 10057 10052 10048 10044 10040 10035 10029 10024 10020 10016 10013 10009 10005 10002 9999 9995 9992 9990 9989 9987 9986 9985 9983 9982 9981 9979 9977 9977 9976 9975 9973 9972 9972 9971 9970 9969 9968 9967 9968 9969 9970 9970 9972 9973 9976 9978 9980 9982 9985 9988 9992 9995 9999 10003 10008 10012 10018 10024 10030 10035 10041 10046 10052 10057 10060 10065 10074 10083 10093 10103 10111 10117 10122 10130 10139 10148 10157 10168
10091 10084 10078 10071 10063 10056 10050 10044 10040 10036 10032 10028 10024 10019 10014 10009 10006 10003 9999 9996 9993 9990 9986 9984 9981 9980 9978 9977 9976 9975 9974 9972 9970 9969 9968 9968 9966 9964 9963 9963 9963 9962 9961 9960 9959 9959 9959 9959 9960 9962 9963 9965 9968 9970 9972 9974 9977 9980 9983 9986 9990 9994 9999 10005 10010 10015 10020 10024 10029 10035 10040 10044 10048 10055 10064 10075 10085 10094 10101 10109 10117 10125 10132 10141 10152
10076 10070 10064 10057 10050 10043 10037 10032 10027 10023 10021 10017 10013 10008 10004 9999 9996 9993 9989 9986 9983 9980 9977 9975 9973 9971 9970 9969 9967 9966 9966 9964 9962 9960 9960 9959 9958 9956 9955 9955 9955 9954 9953 9951 9950 9950 9950 9949 9950 9952 9953 9955 9957 9959 9961 9963 9966 9968 9971 9974 9978 9982 9986 9991 9997 10002 10006 10009 10014 10019 10024 10028 10031 10037 10047 10057 10067 10076 10086 10095 10102 10108 10114 10123 10136
10062 10056 10050 10044 10037 10031 10025 10020 10015 10012 10009 10006 10002 9998 9994 9989 9986 9983 9980 9977 9974 9971 9968 9965 9964 9962 9961 9960 9959 9958 9957 9956 9954 9953 9952 9951 9949 9948 9947 9947 9946 9945 9944 9943 9942 9942 9942 9941 9941 9942 9944 9945 9946 9948 9950 9953 9955 9958 9960 9963 9967 9970 9974 9978 9984 9989 9992 9995 9999 10004 10009 10012 10015 10021 10030 10039 10048 10058 10068 10077 10085 10092 10099 10108 10118
10047 10041 10036 10030 10024 10018 10013 10008 10004 10001 9998 9996 9992 9988 9984 9980 9976 9973 9970 9968 9965 9962 9959 9957 9955 9953 9952 9951 9951 9950 9949 9947 9946 9945 9944 9943 9941 9940 9939 9939 9938 9937 9936 9934 9933 9934 9934 9933 9932 9932 9934 9935 9936 9938 9940 9942 9945 9948 9950 9952 9955 9958 9962 9966 9971 9976 9980 9983 9986 9989 9993 9996 10000 10006 10014 10022 10032 10042 10052 10060 10069 10076 10083 10092 10099
10032 10027 10021 10016 10011 10006 10001 9997 9994 9991 9988 9985 9982 9978 9974 9970 9967 9964 9961 9958 9956 9953 9950 9948 9946 9944 9943 9942 9942 9942 9941 9939 9937 9937 9936 9935 9933 9932 9931 9931 9930 9929 9927 9926 9925 9925 9925 9925 9924 9924 9924 9926 9927 9928 9930 9932 9935 9937 9939 9941 9944 9947 9951 9955 9958 9962 9967 9970 9973 9976 9979 9983 9987 9992 10000 10009 10019 10028 10037 10045 10053 10061 10069 10077 10084
10018 10013 10008 10002 9998 9993 9988 9985 9983 9980 9977 9975 9972 9968 9964 9960 9958 9954 9952 9949 9947 9944 9942 9940 9938 9936 9934 9934 9934 9934 9932 9930 9929 9929 9928 9927 9926 9924 9924 9923 9922 9921 9919 9918 9917 9916 9916 9917 9916 9916 9916 9916 9917 9918 9920 9922 9925 9927 9929 9931 9933 9936 9939 9943 9947 9950 9953 9957 9960 9964 9967 9971 9974 9979 9987 9997 10005 10013 10021 10029 10038 10048 10057 10065 10072
10006 10001 9995 9990 9985 9981 9977 9975 9972 9969 9967 9964 9962 9958 9954 9951 9948 9945 9942 9940 9938 9935 9933 9931 9930 9928 9926 9925 9926 9926 9924 9922 9921 9921 9920 9919 9918 9917 9916 9915 9914 9913 9911 9910 9909 9908 9907 9908 9908 9908 9907 9908 9908 9910 9911 9913 9915 9917 9918 9920 9923 9926 9928 9931 9935 9938 9941 9944 9947 9951 9955 9959 9962 9966 9974 9982 9989 9997 10005 10013 10023 10032 10042 10050 10057
9994 9988 9983 9978 9974 9970 9966 9964 9961 9958 9955 9953 9951 9947 9944 9941 9938 9936 9933 9931 9929 9927 9925 9923 9921 9920 9918 9917 9917 9918 9916 9914 9913 9913 9912 9911 9910 9909 9908 9907 9906 9905 9904 9902 9901 9901 9899 9899 9899 9899 9899 9899 9899 9901 9903 9904 9905 9907 9908 9911 9913 9916 9918 9920 9923 9926 9929 9932 9935 9938 9942 9947 9950 9953 9960 9967 9974 9981 9989 9997 10005 10013 10023 10032 10038
9981 9976 9971 9965 9962 9958 9955 9953 9950 9946 9944 9942 9940 9937 9933 9931 9929 9926 9924 9923 9921 9919 9917 9915 9914 9912 9910 9909 9909 9910 9909 9906 9905 9905 9904 9903 9902 9901 9901 9900 9898 9897 9897 9895 9894 9893 9892 9891 9891 9892 9891 9890 9891 9892 9894 9896 9896 9897 9899 9901 9904 9906 9907 9909 9911 9915 9918 9920 9923 9926 9930 9934 9938 9942 9948 9954 9960 9966 9974 9980 9986 9993 10003 10011 10016
9969 9964 9958 9954 9950 9947 9944 9942 9939 9935 9933 9932 9930 9926 9923 9921 9919 9917 9916 9914 9912 9911 9909 9908 9906 9904 9903 9902 9901 9902 9901 9899 9898 9897 9896 9895 9894 9894 9894 9892 9890 9889 9889 9888 9886 9886 9885 9884 9884 9884 9883 9882 9882 9884 9885 9887 9888 9888 9889 9892 9895 9896 9896 9898 9901 9904 9907 9910 9912 9916 9919 9923 9927 9931 9936 9942 9948 9953 9959 9963 9969 9977 9985 9991 9996
9957 9952 9947 9943 9939 9936 9934 9931 9928 9925 9923 9922 9920 9917 9914 9912 9910 9909 9907 9905 9904 9902 9901 9900 9899 9897 9895 9895 9894 9894 9894 9892 9891 9890 9889 9888 9886 9886 9886 9885 9883 9882 9881 9880 9879 9878 9878 9877 9876 9876 9876 9875 9874 9875 9877 9878 9879 9880 9881 9884 9886 9886 9886 9888 9891 9894 9897 9900 9902 9905 9908 9912 9916 9919 9924 9930 9936 9941 9946 9950 9955 9963 9969 9975 9980
9946 9941 9937 9933 9929 9926 9924 9921 9918 9915 9913 9912 9910 9907 9905 9902 9901 9900 9898 9897 9896 9894 9893 9892 9891 9889 9888 9887 9887 9887 9887 9886 9884 9883 9882 9881 9879 9878 9879 9878 9877 9875 9874 9873 9871 9870 9870 9870 9869 9868 9868 9868 9867 9868 9869 9870 9871 9872 9873 9875 9876 9876 9877 9880 9883 9884 9887 9890 9893 9895 9898 9902 9905 9908 9912 9917 9923 9929 9935 9939 9944 9950 9955 9961 9966
9936 9931 9927 9923 9920 9916 9914 9910 9908 9906 9904 9902 9900 9898 9896 9894 9893 9892 9890 9889 9887 9886 9885 9885 9883 9881 9880 9880 9879 9879 9879 9879 9877 9876 9875 9874 9872 9871 9871 9871 9870 9869 9868 9866 9864 9863 9862 9862 9862 9861 9861 9861 9860 9860 9861 9862 9863 9864 9866 9867 9867 9868 9870 9872 9874 9875 9877 9880 9882 9885 9888 9892 9895 9898 9902 9906 9912 9918 9924 9929 9933 9937 9941 9945 9950
9925 9921 9917 9913 9910 9907 9904 9901 9899 9897 9895 9893 9891 9889 9887 9885 9884 9883 9882 9881 9879 9878 9877 9877 9876 9874 9872 9872 9872 9872 9872 9871 9870 9869 9868 9867 9865 9864 9864 9864 9863 9862 9861 9860 9858 9856 9855 9855 9854 9854 9853 9853 9853 9853 9854 9854 9855 9856 9858 9859 9859 9860 9862 9864 9866 9867 9868 9870 9872 9875 9878 9882 9885 9888 9892 9896 9901 9907 9912 9916 9919 9922 9925 9929 9933
9915 9911 9907 9904 9901 9898 9895 9892 9890 9888 9886 9884 9882 9880 9879 9877 9876 9875 9874 9873 9871 9870 9870 9869 9868 9866 9865 9864 9864 9865 9865 9864 9863 9862 9861 9860 9858 9857 9856 9856 9856 9855 9854 9853 9852 9850 9849 9848 9847 9847 9846 9846 9846 9846 9846 9847 9847 9849 9850 9851 9852 9853 9854 9856 9858 9859 9860 9861 9863 9866 9869 9872 9875 9878 9882 9886 9890 9894 9897 9900 9903 9906 9910 9914 9918
9906 9902 9899 9895 9892 9889 9886 9884 9882 9880 9878 9876 9874 9872 9871 9869 9868 9867 9866 9865 9864 9863 9862 9862 9861 9859 9858 9857 9857 9857 9857 9857 9856 9855 9854 9853 9851 9850 9849 9849 9848 9848 9848 9847 9846 9844 9843 9842 9841 9840 9840 9839 9839 9839 9839 9839 9840 9841 9842 9843 9844 9845 9846 9848 9850 9851 9852 9853 9855 9857 9859 9862 9865 9868 9871 9874 9877 9879 9882 9885 9888 9891 9895 9899 9905
9899 9895 9891 9887 9884 9881 9878 9876 9874 9872 9870 9868 9866 9865 9863 9862 9861 9860 9859 9858 9856 9855 9855 9855 9854 9852 9851 9850 9849 9849 9850 9850 9849 9849 9847 9846 9845 9844 9843 9842 9841 9841 9841 9840 9839 9838 9837 9836 9835 9834 9833 9833 9832 9832 9832 9832 9833 9834 9835 9835 9836 9837 9839 9840 9842 9843 9845 9846 9847 9848 9850 9853 9855 9857 9860 9862 9865 9868 9871 9874 9876 9878 9882 9886 9891
9891 9887 9884 9880 9877 9874 9871 9869 9867 9865 9862 9861 9859 9857 9856 9854 9853 9852 9852 9851 9849 9848 9848 9847 9847 9846 9844 9843 9842 9841 9842 9842 9842 9842 9841 9840 9839 9838 9836 9835 9835 9834 9834 9833 9833 9832 9831 9830 9829 9828 9827 9827 9826 9826 9825 9825 9826 9827 9827 9828 9829 9830 9831 9832 9834 9835 9837 9838 9839 9840 9842 9843 9845 9847 9850 9852 9855 9858 9861 9863 9864 9866 9870 9874 9878
9884 9880 9876 9873 9870 9867 9864 9862 9859 9857 9855 9854 9852 9850 9849 9848 9846 9845 9845 9844 9843 9842 9841 9840 9840 9839 9838 9836 9835 9834 9834 9834 9834 9834 9834 9833 9833 9831 9830 9829 9828 9828 9827 9826 9826 9825 9824 9823 9823 9822 9821 9821 9820 9820 9819 9819 9819 9820 9820 9821 9822 9822 9823 9824 9826 9827 9829 9830 9831 9832 9833 9835 9836 9839 9841 9843 9846 9849 9851 9853 9854 9856 9859 9862 9864
9877 9873 9869 9866 9863 9860 9857 9855 9852 9850 9849 9847 9845 9844 9842 9841 9839 9838 9838 9837 9836 9835 9834 9833 9833 9832 9831 9829 9828 9827 9826 9826 9826 9827 9827 9826 9826 9825 9824 9823 9822 9822 9821 9820 9819 9819 9818 9817 9816 9816 9815 9815 9815 9814 9813 9813 9812 9813 9813 9814 9815 9815 9816 9817 9818 9819 9821 9822 9823 9824 9825 9826 9828 9830 9832 9834 9837 9840 9841 9842 9844 9846 9849 9850 9852
9869 9866 9862 9859 9856 9853 9850 9848 9846 9844 9843 9841 9839 9837 9836 9834 9833 9832 9831 9831 9830 9829 9828 9827 9826 9825 9824 9823 9821 9820 9820 9819 9819 9819 9819 9819 9819 9819 9818 9817 9816 9815 9815 9814 9813 9813 9812 9811 9811 9810 9809 9809 9809 9808 9807 9806 9806 9806 9807 9807 9808 9808 9809 9810 9810 9811 9813 9814 9816 9816 9817 9818 9820 9822 9824 9826 9829 9831 9832 9833 9835 9837 9838 9839 9841
9862 9859 9855 9852 9849 9846 9844 9841 9839 9837 9836 9834 9833 9831 9829 9828 9826 9825 9824 9824 9823 9822 9821 9820 9819 9818 9817 9816 9815 9814 9813 9813 9812 9812 9812 9812 9812 9812 9811 9811 9810 9809 9808 9807 9806 9806 9806 9805 9805 9804 9803 9803 9803 9802 9802 9801 9800 9800 9800 9800 9801 9802 9802 9803 9804 9804 9805 9806 9807 9809 9809 9810 9812 9814 9816 9818 9820 9822 9823 9825 9826 9828 9829 9830 9832
9856 9853 9849 9846 9843 9840 9837 9835 9832 9831 9829 9828 9826 9824 9822 9821 9820 9818 9818 9817 9816 9816 9815 9813 9812 9811 9810 9809 9808 9807 9806 9805 9805 9805 9805 9805 9805 9805 9804 9804 9804 9803 9802 9801 9801 9800 9800 9799 9799 9798 9798 9797 9797 9797 9796 9795 9795 9794 9794 9794 9794 9795 9796 9796 9797 9797 9798 9799 9800 9801 9802 9803 9804 9806 9807 9810 9812 9813 9814 9816 9818 9819 9821 9822 9824
9850 9846 9843 9840 9836 9833 9830 9828 9826 9824 9822 9820 9819 9817 9816 9815 9813 9812 9811 9811 9810 9809 9808 9807 9806 9805 9804 9803 9801 9800 9799 9799 9798 9798 9798 9798 9798 9798 9797 9797 9797 9796 9796 9795 9795 9794 9794 9793 9793 9792 9792 9792 9791 9791 9791 9790 9789 9788 9788 9788 9788 9789 9789 9790 9790 9791 9791 9792 9793 9793 9794 9796 9797 9798 9799 9801 9803 9804 9806 9807 9809 9810 9812 9813 9815
9843 9840 9837 9834 9830 9827 9824 9821 9819 9817 9815 9813 9812 9810 9809 9808 9807 9806 9805 9804 9803 9803 9802 9801 9800 9798 9797 9796 9795 9794 9793 9793 9792 9792 9791 9790 9790 9790 9790 9790 9790 9790 9789 9789 9789 9788 9788 9787 9787 9786 9786 9786 9786 9785 9785 9784 9784 9783 9783 9782 9782 9782 9783 9783 9784 9784 9784 9785 9786 9786 9787 9788 9789 9790 9792 9793 9795 9796 9797 9799 9800 9802 9803 9805 9807
9836 9833 9830 9827 9824 9820 9817 9815 9812 9810 9808 9807 9805 9804 9803 9802 9801 9800 9799 9798 9797 9796 9795 9794 9793 9792 9791 9790 9789 9788 9787 9786 9786 9786 9785 9784 9784 9784 9784 9784 9783 9783 9783 9783 9782 9782 9782 9781 9781 9781 9780 9780 9780 9779 9779 9779 9778 9778 9777 9777 9776 9776 9777 9777 9777 9778 9778 9778 9779 9779 9780 9781 9782 9783 9784 9785 9787 9788 9789 9791 9792 9793 9795 9796 9798
9829 9826 9823 9820 9817 9814 9811 9808 9806 9804 9802 9800 9798 9797 9796 9795 9794 9793 9792 9791 9790 9790 9789 9787 9786 9785 9784 9783 9782 9782 9781 9780 9780 9779 9779 9778 9778 9778 9777 9777 9777 9777 9777 9777 9776 9776 9776 9775 9775 9775 9775 9774 9774 9774 9773 9773 9772 9772 9772 9772 9771 9771 9771 9771 9771 9771 9772 9772 9772 9773 9773 9773 9774 9776 9777 9778 9779 9780 9782 9783 9784 9785 9786 9788 9790
9821 9819 9816 9814 9810 9807 9805 9802 9799 9797 9795 9793 9792 9790 9789 9788 9787 9786 9785 9784 9784 9783 9782 9781 9779 9778 9777 9776 9775 9775 9774 9773 9773 9773 9772 9772 9772 9771 9771 9771 9771 9771 9771 9771 9770 9770 9769 9769 9769 9769 9769 9769 9768 9768 9768 9767 9767 9766 9766 9766 9766 9766 9765 9765 9765 9765 9766 9766 9766 9766 9767 9767 9767 9768 9769 9770 9771 9772 9774 9775 9776 9777 9779 9780 9781
9814 9811 9809 9806 9803 9800 9798 9795 9793 9790 9788 9787 9785 9784 9783 9782 9781 9780 9779 9778 9777 9776 9775 9774 9773 9772 9770 9769 9768 9768 9767 9767 9766 9766 9766 9765 9765 9765 9765 9765 9765 9764 9764 9764 9764 9763 9763 9763 9762 9762 9762 9762 9762 9762 9762 9761 9761 9761 9760 9760 9760 9760 9760 9759 9759 9759 9759 9759 9760 9760 9760 9761 9761 9762 9762 9763 9764 9765 9766 9767 9768 9770 9771 9772 9773
9807 9804 9801 9798 9796 9793 9791 9789 9786 9784 9782 9780 9778 9777 9776 9775 9774 9773 9772 9771 9770 9769 9768 9767 9766 9765 9764 9763 9762 9761 9761 9760 9760 9759 9759 9759 9758 9758 9758 9758 9758 9758 9758 9758 9758 9757 9757 9757 9756 9756 9756 9755 9755 9755 9755 9755 9755 9755 9754 9754 9754 9754 9753 9753 9753 9753 9753 9753 9753 9753 9754 9754 9754 9755 9756 9756 9757 9757 9758 9759 9761 9762 9763 9764 9765
9800 9796 9793 9791 9788 9786 9783 9781 9780 9778 9775 9773 9771 9770 9769 9768 9767 9766 9765 9764 9763 9762 9761 9760 9759 9758 9757 9756 9755 9754 9754 9753 9753 9753 9752 9752 9752 9752 9752 9751 9751 9751 9751 9751 9751 9751 9751 9750 9750 9750 9749 9749 9749 9749 9749 9749 9749 9749 9748 9748 9748 9748 9747 9747 9747 9747 9747 9747 9747 9747 9747 9747 9748 9748 9749 9749 9750 9751 9751 9752 9753 9754 9755 9757 9758
9793 9789 9786 9783 9781 9778 9776 9774 9773 9771 9769 9766 9765 9763 9762 9760 9760 9759 9758 9757 9756 9755 9754 9754 9753 9752 9750 9749 9748 9747 9747 9746 9746 9746 9746 9746 9745 9745 9745 9745 9745 9745 9745 9745 9745 9745 9744 9744 9744 9744 9743 9743 9743 9743 9743 9743 9743 9742 9742 9742 9742 9741 9741 9741 9741 9741 9740 9740 9740 9740 9740 9740 9740 9741 9741 9742 9743 9743 9744 9745 9745 9746 9747 9748 9750
9787 9783 9780 9776 9773 9771 9769 9767 9765 9764 9762 9760 9758 9756 9755 9753 9752 9751 9750 9749 9748 9747 9747 9746 9746 9745 9744 9743 9742 9741 9740 9739 9739 9739 9739 9739 9739 9739 9739 9738 9738 9738 9738 9738 9738 9738 9738 9738 9738 9737 9737 9737 9737 9736 9736 9736 9736 9736 9736 9736 9736 9735 9735 9735 9735 9735 9734 9734 9734 9734 9733 9733 9733 9734 9734 9734 9735 9736 9736 9737 9738 9739 9739 9740 9741
9781 9777 9773 9770 9766 9763 9761 9759 9757 9756 9754 9752 9750 9749 9747 9746 9744 9743 9742 9742 9741 9739 9738 9738 9738 9737 9737 9736 9736 9735 9734 9733 9732 9732 9732 9732 9732 9732 9732 9732 9731 9731 9731 9731 9731 9731 9731 9731 9731 9730 9730 9730 9730 9730 9730 9729 9729 9729 9729 9729 9729 9729 9729 9728 9728 9728 9728 9728 9728 9727 9727 9727 9727 9726 9726 9727 9727 9728 9728 9729 9730 9731 9732 9733 9734
9775 9771 9767 9763 9760 9757 9754 9751 9749 9747 9746 9744 9743 9741 9739 9738 9737 9735 9734 9733 9733 9731 9730 9730 9729 9729 9728 9728 9728 9728 9727 9726 9725 9725 9725 9724 9724 9724 9724 9724 9724 9724 9724 9724 9724 9724 9724 9723 9723 9723 9723 9723 9723 9723 9723 9723 9722 9722 9722 9722 9722 9722 9722 9722 9722 9721 9721 9721 9721 9721 9721 9720 9720 9720 9720 9720 9720 9720 9721 9721 9721 9722 9723 9725 9726
9768 9764 9760 9756 9753 9750 9747 9744 9742 9739 9738 9736 9734 9733 9731 9730 9728 9727 9726 9725 9724 9723 9722 9721 9720 9720 9719 9719 9719 9719 9719 9718 9718 9717 9717 9716 9716 9716 9716 9716 9716 9716 9716 9716 9716 9716 9716 9716 9716 9716 9715 9715 9715 9715 9715 9715 9715 9715 9715 9715 9715 9714 9714 9714 9714 9714 9714 9714 9714 9714 9714 9714 9713 9713 9713 9713 9712 9712 9713 9713 9714 9714 9715 9716 9717
9759 9756 9753 9749 9746 9743 9740 9737 9735 9732 9730 9728 9726 9724 9723 9721 9720 9719 9717 9716 9715 9714 9713 9712 9712 9711 9710 9710 9710 9710 9710 9710 9710 9709 9709 9708 9708 9707 9707 9707 9707 9708 9708 9708 9708 9708 9708 9708 9708 9708 9708 9708 9707 9707 9707 9707 9707 9707 9707 9707 9707 9707 9707 9707 9707 9707 9707 9707 9707 9707 9707 9706 9706 9706 9706 9706 9705 9705 9705 9705 9706 9706 9707 9707 9708
9751 9748 9745 9742 9739 9735 9732 9730 9727 9725 9722 9720 9718 9716 9714 9713 9711 9710 9709 9707 9706 9705 9704 9703 9702 9702 9701 9701 9700 9700 9701 9701 9701 9701 9701 9700 9700 9699 9699 9698 9698 9698 9698 9699 9699 9699 9700 9700 9700 9700 9700 9700 9700 9699 9699 9699 9699 9699 9699 9699 9699 9699 9699 9699 9699 9699 9699 9699 9699 9699 9699 9699 9699 9698 9698 9698 9698 9698 9697 9697 9697 9698 9698 9699 9700
9743 9740 9737 9734 9731 9728 9725 9722 9719 9717 9714 9712 9710 9708 9706 9704 9702 9701 9700 9698 9697 9696 9695 9694 9693 9693 9692 9691 9691 9691 9690 9691 9691 9691 9691 9691 9691 9691 9691 9690 9690 9690 9690 9690 9690 9690 9691 9691 9691 9691 9692 9691 9691 9691 9692 9692 9692 9691 9691 9691 9691 9691 9691 9691 9691 9691 9691 9691 9691 9690 9691 9691 9691 9691 9690 9690 9690 9690 9690 9689 9689 9690 9690 9690 9691
9735 9731 9728 9725 9723 9720 9717 9715 9712 9709 9706 9704 9702 9699 9697 9696 9694 9692 9691 9690 9688 9687 9686 9685 9684 9684 9683 9682 9682 9681 9681 9681 9681 9681 9681 9681 9682 9682 9682 9682 9682 9682 9682 9682 9682 9682 9682 9682 9683 9683 9683 9683 9684 9684 9684 9684 9684 9684 9684 9684 9683 9683 9683 9683 9683 9683 9683 9683 9682 9682 9682 9682 9682 9682 9682 9682 9682 9682 9682 9682 9681 9682 9682 9682 9682
9726 9722 9719 9716 9713 9710 9708 9706 9703 9701 9698 9696 9694 9691 9689 9687 9685 9684 9682 9681 9680 9679 9677 9677 9676 9675 9674 9674 9673 9672 9672 9672 9671 9671 9671 9671 9671 9672 9672 9672 9673 9673 9673 9673 9673 9673 9674 9674 9674 9675 9675 9675 9675 9676 9676 9676 9676 9676 9676 9676 9676 9676 9675 9675 9675 9675 9675 9675 9674 9674 9674 9674 9674 9674 9674 9674 9674 9674 9674 9674 9674 9674 9674 9674 9674
9717 9713 9710 9706 9703 9701 9698 9696 9694 9691 9689 9687 9685 9683 9681 9679 9677 9675 9674 9672 9671 9670 9669 9668 9667 9666 9666 9665 9664 9664 9663 9663 9662 9662 9662 9662 9662 9662 9662 9662 9663 9663 9664 9664 9664 9664 9665 9665 9665 9665 9666 9666 9666 9667 9667 9668 9668 9668 9668 9668 9668 9668 9667 9667 9667 9667 9667 9666 9666 9666 9666 9665 9665 9665 9665 9665 9665 9665 9665 9666 9665 9665 9665 9666 9666